Location: Harburg
(48.7667°N, 10.6667°E)
Time: 04:46:24
(UTC+00:00)

Meteor 2-9 Rocket - Pass Details

Date: 18 September 2020
Orbit: 791 x 896 km, 81.3° (Epoch: 29 October)

Event Time Altitude Azimuth Distance (km) Brightness Sun altitude
Rises 17:50:52 0° 177° (S) 3,498 7.3 -5.4°
Reaches altitude 10° 17:53:21 10° 173° (S) 2,561 6.6 -5.8°
Maximum altitude 17:59:05 59° 96° (E) 1,026 4.4 -6.7°
Drops below altitude 10° 18:04:46 10° 18° (NNE) 2,544 6.6 -7.7°
Sets 18:07:13 0° 15° (NNE) 3,473 7.4 -8.1°
